Weather in Radovitskiy

Russia / Moscow Oblast     55°07′41″N   39°47′37″E
temp.,
°C
wind,
m/s
gust,
m/s
humid.,
%
clouds,
%
prec.,
mm/h
press.,
hPa
HPBL,
m
25 february, thu
thu2500:00−15s4894100 0.3 1029405
03:00−14ssw4995100 0.9 1026398
06:00−12ssw41095100 1.8 1021375
09:00−7ssw51194100 3.4 1017465
12:00+1sw31099100 2.3 1013395
15:00+2wnw412100100 2.8 1012485
18:00+2wnw41399100 0.0 1013486
21:00+1wnw41097100 0.0 1014328
26 february, fri
fri2600:00+1w3899100 0.0 1013261
03:00+1wsw3899100 0.1 1013230
06:00+2wsw41099100 0.4 1010303
09:00+2wsw51299100 1.6 1009434
12:00+3wsw512100100 0.3 1006438
15:00+3wsw615100100 0.8 1003609
18:00+3w51496100 0.8 1002916
21:00+2w61488100 0.9 1003995
27 february, sat
sat2700:00+1wnw6139091 0.0 1001998
03:00+1w6138796 0.0 1002975
06:000w6148990 0.0 1000798
09:000wnw5128994 0.0 1002772
12:00+1wnw51090100 0.0 1002809
15:00+1nw4997100 0.1 1004769
18:000nw3998100 0.3 1006493
21:00−1nw399795 0.6 1007380
28 february, sun
sun2800:00−2nw389693 0.3 1008341
03:00−3nnw389687 0.4 1010306
06:00−3nnw389789 0.2 1012354
09:00−3nnw379389 0.4 1013500
12:00−1nnw368798 0.1 1015745
15:00−2nnw478899 0.4 1016730
18:00−4n2696100 0.3 1018310
21:00−5n3992100 0.4 1021724
1 march, mon
mon100:00−5n279498 0.1 1023610
03:00−6nnw279399 0.3 1025340
06:00−8nw259596 0.0 1026106
09:00−6nw259295 0.0 1027265
12:00−3wnw248160 0.0 1028632
15:00−2w468477 0.0 1027630
18:00−4w31091100 0.0 1027382
21:00−4w4129389 0.0 1027366